TimeCST,TemperatureF,Dew PointF,Humidity,Sea Level PressureIn,VisibilityMPH,Wind Direction,Wind SpeedMPH,Gust SpeedMPH,PrecipitationIn,Events,Conditions,WindDirDegrees,DateUTC
12:53 AM,25.0,23.0,92,30.27,10.0,Calm,Calm,-,N/A,,Clear,0,2013-12-18 06:53:00
1:53 AM,24.1,21.9,91,30.25,10.0,Calm,Calm,-,N/A,,Clear,0,2013-12-18 07:53:00
2:53 AM,23.0,21.9,96,30.23,10.0,Calm,Calm,-,N/A,,Clear,0,2013-12-18 08:53:00
3:53 AM,23.0,21.0,92,30.22,10.0,Calm,Calm,-,N/A,,Clear,0,2013-12-18 09:53:00
4:53 AM,23.0,21.0,92,30.20,10.0,Calm,Calm,-,N/A,,Clear,0,2013-12-18 10:53:00
5:53 AM,23.0,21.9,96,30.19,10.0,Calm,Calm,-,N/A,,Clear,0,2013-12-18 11:53:00
6:53 AM,23.0,21.0,92,30.17,10.0,Calm,Calm,-,N/A,,Clear,0,2013-12-18 12:53:00
7:53 AM,24.1,21.9,91,30.17,8.0,Calm,Calm,-,N/A,,Clear,0,2013-12-18 13:53:00
8:53 AM,39.9,33.1,77,30.15,9.0,South,4.6,-,N/A,,Clear,170,2013-12-18 14:53:00
9:53 AM,52.0,34.0,50,30.14,10.0,South,10.4,-,N/A,,Clear,190,2013-12-18 15:53:00
10:53 AM,57.9,35.1,42,30.11,10.0,South,12.7,21.9,N/A,,Clear,170,2013-12-18 16:53:00
11:53 AM,64.0,35.1,34,30.06,10.0,South,16.1,24.2,N/A,,Clear,190,2013-12-18 17:53:00
12:53 PM,64.9,34.0,32,30.02,10.0,SSW,16.1,26.5,N/A,,Clear,200,2013-12-18 18:53:00
1:53 PM,66.9,34.0,30,29.96,10.0,South,12.7,25.3,N/A,,Clear,190,2013-12-18 19:53:00
2:53 PM,68.0,35.1,30,29.93,8.0,South,16.1,26.5,N/A,,Clear,190,2013-12-18 20:53:00
3:53 PM,66.0,35.1,32,29.91,10.0,South,12.7,17.3,N/A,,Clear,180,2013-12-18 21:53:00
4:53 PM,62.1,36.0,38,29.89,10.0,South,8.1,16.1,N/A,,Clear,190,2013-12-18 22:53:00
5:53 PM,60.1,37.0,42,29.89,10.0,SSW,9.2,-,N/A,,Clear,200,2013-12-18 23:53:00
6:53 PM,59.0,36.0,42,29.89,10.0,South,9.2,-,N/A,,Clear,180,2013-12-19 00:53:00
7:53 PM,59.0,36.0,42,29.89,10.0,South,12.7,19.6,N/A,,Clear,190,2013-12-19 01:53:00
8:53 PM,57.0,35.1,44,29.89,10.0,South,10.4,-,N/A,,Clear,180,2013-12-19 02:53:00
9:53 PM,55.9,36.0,47,29.88,10.0,South,12.7,18.4,N/A,,Clear,180,2013-12-19 03:53:00
10:53 PM,53.1,37.0,55,29.88,10.0,South,9.2,-,N/A,,Clear,180,2013-12-19 04:53:00
11:53 PM,48.9,37.9,66,29.87,10.0,South,5.8,-,N/A,,Clear,170,2013-12-19 05:53:00